This is the latest recevied weather packets stored in our database for station/object W4KUS-10. If no packets are shown the sender has not sent any weather packets the latest 1 day(s).
| Time | Temp. | Humidity | Pressure | Rain* | Wind** | Luminosity | Snow |
|---|---|---|---|---|---|---|---|
| 1778089240 | 28.33° C | 44% | 1015.3 hPa | 0 mm | - | - | - |
| 1778088940 | 28.89° C | 44% | 1015.4 hPa | 0 mm | - | - | - |
| 1778088640 | 28.89° C | 45% | 1015.4 hPa | 0 mm | - | - | - |
| 1778088340 | 28.89° C | 44% | 1015.2 hPa | 0 mm | - | - | - |
| 1778088040 | 29.44° C | 44% | 1015.2 hPa | 0 mm | - | - | - |
| 1778087140 | 28.89° C | 48% | 1015.3 hPa | 0 mm | - | - | - |
| 1778086840 | 28.89° C | 47% | 1015.4 hPa | 0 mm | - | - | - |
| 1778086540 | 28.89° C | 48% | 1015.5 hPa | 0 mm | - | - | - |
| 1778085940 | 28.89° C | 51% | 1015.5 hPa | 0 mm | - | - | - |
| 1778085640 | 28.33° C | 51% | 1015.5 hPa | 0 mm | - | - | - |
| 1778085340 | 28.33° C | 53% | 1015.6 hPa | 0 mm | - | - | - |
| 1778085040 | 28.33° C | 53% | 1015.7 hPa | 0 mm | - | - | - |
| 1778084740 | 28.33° C | 53% | 1015.7 hPa | 0 mm | - | - | - |
| 1778084440 | 28.33° C | 54% | 1015.7 hPa | 0 mm | - | - | - |
| 1778084140 | 27.78° C | 54% | 1015.8 hPa | 0 mm | - | - | - |
| 1778083840 | 28.33° C | 53% | 1016 hPa | 0 mm | - | - | - |
| 1778083540 | 28.33° C | 52% | 1015.9 hPa | 0 mm | - | - | - |
| 1778083240 | 28.33° C | 53% | 1015.8 hPa | 0 mm | - | - | - |
| 1778082940 | 28.33° C | 54% | 1015.8 hPa | 0 mm | - | - | - |
| 1778082640 | 27.78° C | 54% | 1015.7 hPa | 0 mm | - | - | - |
| 1778082340 | 27.78° C | 56% | 1015.6 hPa | 0 mm | - | - | - |
| 1778081440 | 28.33° C | 55% | 1015.6 hPa | 0 mm | - | - | - |
| 1778081140 | 28.33° C | 55% | 1015.6 hPa | 0 mm | - | - | - |
| 1778080841 | 28.33° C | 56% | 1015.7 hPa | 0 mm | - | - | - |
| 1778080541 | 27.78° C | 55% | 1015.8 hPa | 0 mm | - | - | - |
* Rain latest hour (hover to see other rain measurements)
** Current wind speed in m/s (hover to see current wind gust speed)